Weather History for Madison, WI

Change the Weather History Date:

Thursday, December 12, 2013

  Actual Average Record
Temperature  
Mean Temperature 12 °F 24 °F  
Max Temperature 24 °F 31 °F 53 °F (1965)
Min Temperature -1 °F 17 °F -10 °F (1962)
Degree Days  
Heating Degree Days 53 41  
Month to date heating degree days 546 468  
Since 1 July heating degree days 2065 2047  
Cooling Degree Days 0 0  
Month to date cooling degree days 0 0  
Year to date cooling degree days 709 568  
Moisture  
Dew Point 2 °F    
Average Humidity 68    
Maximum Humidity 79    
Minimum Humidity 56    
Precipitation  
Precipitation 0.00 in 0.06 in 0.96 in (1909)
Month to date precipitation 0.52 0.82  
Year to date precipitation 44.28 33.56  
Snow  
Snow 0.00 in 0.40 in 10.60 in (1909)
Month to date snowfall 6.5 5.1  
Since 1 July snowfall 10.0 9.2  
Snow Depth 2.00 in    
Sea Level Pressure  
Sea Level Pressure 30.32 in    
Wind  
Wind Speed 7 mph (WSW)    
Max Wind Speed 16 mph    
Max Gust Speed 22 mph    
Visibility 10 miles    
Events      
T = Trace of Precipitation, MM = Missing Value Source: NWS Daily Summary

Daily Weather History Graph

Daily Weather History Graph

Search for Another Location

Airport:

Trip Planner

Search our weather history database for the weather conditions in past years. The results will help you decide how hot, cold, wet, or windy it might be!

Date:

Astronomy

Dec. 12, 2013 Rise Set
Actual Time 7:20 AM CST 4:22 PM CST
Civil Twilight 6:47 AM CST 4:54 PM CST
Nautical Twilight 6:11 AM CST 5:30 PM CST
Astronomical Twilight 5:37 AM CST 6:05 PM CST
Moon 1:34 PM CST (12/12) 2:37 AM CST (12/12)
Length of Visible Light 10h 07m
Length of Day
9h 02m
Waxing Gibbous, 80% of the Moon is Illuminated
Dec 12
Waxing Gibbous
Dec 17
Full
Dec 25
Last Quarter
Jan 1
New
Jan 7
First Quarter

Hourly Weather History & Observations

Time (CST) Temp. Windchill Dew Point Humidity Pressure Visibility Wind Dir Wind Speed Gust Speed Precip Events Conditions
12:53 AM -0.0 °F -9.9 °F -6.0 °F 76% 30.51 in 10.0 mi SW 4.6 mph - N/A   Clear
1:53 AM 1.0 °F -10.3 °F -6.0 °F 72% 30.51 in 10.0 mi SW 5.8 mph - N/A   Overcast
2:53 AM 1.0 °F -10.3 °F -6.0 °F 72% 30.48 in 10.0 mi Variable 5.8 mph - N/A   Overcast
3:53 AM 1.0 °F -11.7 °F -6.0 °F 72% 30.44 in 10.0 mi SSW 6.9 mph - N/A   Overcast
4:53 AM 3.0 °F -13.3 °F -5.1 °F 69% 30.41 in 10.0 mi SSW 11.5 mph 17.3 mph N/A   Overcast
5:53 AM 3.9 °F -13.0 °F -5.1 °F 66% 30.37 in 10.0 mi SW 12.7 mph 18.4 mph N/A   Overcast
6:53 AM 5.0 °F -10.0 °F -4.0 °F 66% 30.36 in 10.0 mi SW 10.4 mph 18.4 mph N/A   Mostly Cloudy
7:53 AM 7.0 °F -7.5 °F -2.9 °F 64% 30.35 in 10.0 mi WSW 10.4 mph - N/A   Mostly Cloudy
8:53 AM 8.1 °F -6.2 °F -2.0 °F 64% 30.35 in 10.0 mi WSW 10.4 mph 17.3 mph N/A   Mostly Cloudy
9:53 AM 9.0 °F -0.9 °F -0.9 °F 64% 30.36 in 10.0 mi WSW 5.8 mph - N/A   Mostly Cloudy
10:53 AM 10.9 °F -0.8 °F 1.9 °F 67% 30.36 in 10.0 mi WSW 8.1 mph - N/A   Mostly Cloudy
11:53 AM 14.0 °F 6.5 °F 1.9 °F 59% 30.33 in 10.0 mi Variable 4.6 mph - N/A   Mostly Cloudy
12:53 PM 16.0 °F 3.6 °F 3.9 °F 59% 30.31 in 10.0 mi SW 10.4 mph - N/A   Mostly Cloudy
1:53 PM 17.1 °F 6.6 °F 5.0 °F 59% 30.29 in 10.0 mi WSW 8.1 mph - N/A   Mostly Cloudy
2:53 PM 17.1 °F 8.7 °F 6.1 °F 62% 30.28 in 10.0 mi Variable 5.8 mph - N/A   Mostly Cloudy
3:53 PM 18.0 °F 11.1 °F 7.0 °F 62% 30.27 in 10.0 mi Variable 4.6 mph - N/A   Mostly Cloudy
4:53 PM 16.0 °F 10.4 °F 6.1 °F 65% 30.27 in 10.0 mi Variable 3.5 mph - N/A   Mostly Cloudy
5:53 PM 17.1 °F 7.6 °F 7.0 °F 65% 30.26 in 10.0 mi Variable 6.9 mph - N/A   Overcast
6:53 PM 16.0 °F 8.8 °F 8.1 °F 71% 30.26 in 10.0 mi WSW 4.6 mph - N/A   Mostly Cloudy
7:53 PM 17.1 °F 8.7 °F 9.0 °F 71% 30.26 in 10.0 mi SW 5.8 mph - N/A   Overcast
8:53 PM 17.1 °F 10.0 °F 10.0 °F 74% 30.24 in 10.0 mi Variable 4.6 mph - N/A   Mostly Cloudy
9:53 PM 18.0 °F 11.1 °F 10.0 °F 71% 30.22 in 10.0 mi WSW 4.6 mph - N/A   Overcast
10:53 PM 19.0 °F 13.9 °F 10.0 °F 68% 30.20 in 10.0 mi West 3.5 mph - N/A   Overcast
11:53 PM 19.9 °F 14.9 °F 10.0 °F 65% 30.21 in 10.0 mi WNW 3.5 mph - N/A   Partly Cloudy